Regional Weather Roundup
Issued by NWS Cleveland, OH

Home | Current Version | Previous Version | Graphics & Text | Print | Product List | Glossary On
Versions: 1 2 3 4 5 6 7 8 9 10 11 12 13 14 15 16 17 18 19 20 21 22 23 24 25 26 27 28 29 30 31 32 33 34 35 36 37 38 39 40 41 42 43 44 45 46 47 48 49 50
000
ASUS41 KCLE 191110
RWRCLE
OHIO REGIONAL WEATHER ROUNDUP
NATIONAL WEATHER SERVICE WILMINGTON, OH
600 AM EST SUN NOV 19 2017

NOTE: "FAIR" INDICATES FEW OR NO CLOUDS BELOW 12,000 FEET WITH NO
SIGNIFICANT WEATHER AND/OR OBSTRUCTIONS TO VISIBILITY.

OHZ001>008-015>018-024>027-034-035-043-044-191200-
   NORTHWEST OHIO

CITY           SKY/WX    TMP DP  RH WIND       PRES   REMARKS
DEFIANCE       CLOUDY    37  31  78 W8        29.82R
FINDLAY        CLOUDY    38  29  70 W8        29.79R
TOLEDO EXPRESS CLOUDY    38  29  70 NW8       29.78R
TOLEDO EXEC    CLOUDY    38  28  67 NW16      29.79R
LIMA           NOT AVBL
$$

OHZ009>014-019>023-028>033-038-089-191200-
   NORTHEAST OHIO

CITY           SKY/WX    TMP DP  RH WIND       PRES   REMARKS
CLE-HOPKINS    LGT RAIN  38  32  79 W17       29.74R
CLE-LAKEFRONT  CLOUDY    41  29  62 NW21G32   29.70R
CUY CO. ARPT   NOT AVBL
LORAIN-ELYRIA  CLOUDY    38  25  59 NW17G23   29.74R
ASHTABULA      CLOUDY    39  33  79 W15G23    29.64R
AKRON-CANTON   CLOUDY    38  29  70 NW16G28   29.70R
WOOSTER        CLOUDY    35  31  85 NW16      29.73R WCI  25
MANSFIELD      CLOUDY    36  30  79 W7G18     29.75R
YOUNGSTOWN     CLOUDY    39  32  76 W13       29.63R
$$

OHZ042-051>053-060>062-070>072-077>081-191200-
  SOUTHWEST OHIO

CITY           SKY/WX    TMP DP  RH WIND       PRES   REMARKS
CINC-COVINGTON CLOUDY    38  31  76 W12       29.91R
CINC-LUNKEN    CLOUDY    40  31  70 W14       29.93R
HAMILTON       CLOUDY    40  30  67 W8        29.91R
DAYTON         CLOUDY    37  33  85 W14       29.86R
WRIGHT-PAT AFB CLOUDY    39  32  75 W9        29.86R
DAYTON GENERAL CLOUDY    38  31  76 W10       29.87R
WILMINGTON     CLOUDY    37  33  85 W13       29.86R
$$

OHZ036-037-039>041-045>050-054>059-063>069-073>076-082>088-191200-
  CENTRAL AND SOUTHEAST OHIO

CITY           SKY/WX    TMP DP  RH WIND       PRES   REMARKS
COLUMBUS       CLOUDY    40  33  76 W16       29.80R
OSU AIRPORT    CLOUDY    39  34  82 W9        29.81R
BOLTON FIELD   CLOUDY    38  33  81 NW10G17   29.82R
RICKENBACK AFB CLOUDY    37  36  95 W7        29.82R
NEWARK         CLOUDY    40  29  64 NW10      29.78R
MARION         CLOUDY    37  30  75 NW16G24   29.79R
LANCASTER      CLOUDY    39  33  79 W7        29.81R
ZANESVILLE     LGT RAIN  38  34  85 NW10      29.78R
NEW PHILLY     CLOUDY    39  29  67 NW14G22   29.74S
$$



USA.gov is the U.S. government's official web portal to all federal, state and local government web resources and services.